Regional Weather Roundup
Issued by NWS Grand Forks, ND

Home | Current Version | Previous Version | Graphics & Text | Print | Product List | Glossary On
Versions: 1 2 3 4 5 6 7 8 9 10 11 12 13 14 15 16 17 18 19 20 21 22 23 24 25 26 27 28 29 30 31 32 33 34 35 36 37 38 39 40 41 42 43 44 45 46 47 48 49 50
000
ASUS43 KFGF 260931
RWRFGF
PRAIRIE TO PINES  WEATHER ROUNDUP
NATIONAL WEATHER SERVICE EASTERN NORTH DAKOTA/GRAND FORKS ND
400 AM CDT SUN APR 26 2015

 **SATELLITE DATA USED TO AUGMENT SKY COVER AT AUTOMATED STATIONS**
 *****  WEATHER ACROSS EASTERN NORTH DAKOTA  *****

CITY           SKY/WX    TMP DP  RH WIND       PRES   REMARKS
GRAND FORKS    CLEAR     37  29  72 SE6       30.03R
GRAND FRKS AFB CLEAR     33  27  79 S3        30.02S
GRAND FRKS NWS   N/A     36 N/A N/A SW6         N/A
DEVILS LAKE    CLOUDY    45  37  76 SE8       30.00R
FARGO          CLEAR     44  28  53 SE5       30.03R
WAHPETON ARPT  SUNNY     37  27  65 SE5       30.04R
$$

 ***** WEATHER ACROSS CENTRAL AND WESTERN NORTH DAKOTA  *****

CITY           SKY/WX    TMP DP  RH WIND       PRES   REMARKS
BISMARCK       RAIN      46  45  96 E6        29.96S FOG
MINOT          CLOUDY    47  43  86 SE9       29.92S
JAMESTOWN      CLOUDY    46  40  79 SE5       29.99R
MINOT AFB      LGT RAIN  47  47  99 S9        29.92S
GARRISON         N/A     46  44  93 S9        29.93R
WILLISTON      MOCLDY    37  34  89 W8        29.94R
DICKINSON      CLOUDY    43  40  89 W3        29.92R
HETTINGER      CLOUDY    43  41  93 N7        29.94R
$$

 *****  OTHER AIRPORT OBSERVATIONS IN OUR AREA  *****

CITY           SKY/WX    TMP DP  RH WIND       PRES   REMARKS
WALHALLA       PTSUNNY   37  36  93 CALM      30.03S
GRAFTON AIRPOR FAIR      36  28  75 E7        30.04R
VALLEY CITY AR CLOUDY    43  43 100 S7        30.02R
CANDO          CLOUDY    46  41  81 SE7       30.00S
CAVALIER APRT  FAIR      39  30  70 SE3       30.03S
GWINNER        SUNNY     37  36  93 SE7       30.02S
ROLLA          CLOUDY    46  41  81 SE8       29.99S
 ***** THE ABOVE OBSERVATIONS ARE NON NWS ARE NOT QUALITY
       CONTROLLED AND MAY MIS-REPORT RAIN FOR SNOW...
$$

  *****  WEATHER ACROSS NORTHERN MINNESOTA  *****

CITY           SKY/WX    TMP DP  RH WIND       PRES   REMARKS
FLAG ISLAND    CLEAR     43  21  42 E6        30.07R
WARROAD        CLEAR     37  30  75 E6        30.08R
ROSEAU         CLEAR     30  25  80 CALM      30.07R
HALLOCK        CLEAR     39  27  60 E6        30.04S
THF RVR FALLS  CLEAR     39  28  65 SE7       30.06S
BAUDETTE       CLEAR     35  26  69 SE7       30.07R
WASKISH        CLEAR     30  27  86 CALM      30.07R
CROOKSTON      CLEAR     39  28  65 SE7       30.06R
$$
  *****  WEATHER ACROSS CENTRAL AND WEST MINNESOTA  *****

CITY           SKY/WX    TMP DP  RH WIND       PRES   REMARKS
FOSSTON        CLEAR     34  21  60 CALM      30.06S
BEMIDJI        CLEAR     31  22  69 CALM      30.06R
PARK RAPIDS    CLEAR     35  15  44 CALM      30.05R
ELBOW LAKE     FAIR      38  23  53 E10       30.02F
WADENA         FAIR      30  19  64 CALM      30.05S
DETROIT LAKES  FAIR      39  18  41 SE6       30.06S
MOORHEAD       CLEAR     37  27  65 E5        30.04S
FERGUS FALLS   CLEAR     41   7  24 E9        30.05S
MORRIS MN      CLEAR     34  27  75 E10       30.02S
STAPLES        CLEAR     30  12  47 CALM      30.06S
$$
  *****  WEATHER ELSEWHERE ACROSS MINNESOTA  *****

CITY           SKY/WX    TMP DP  RH WIND       PRES   REMARKS
DULUTH         CLEAR     32  12  43 NE6       30.06F
INTRNTL FALLS  CLEAR     30  24  78 E5        30.09R
ELY            CLEAR     21  18  86 CALM      30.09S
CLOQUET        CLEAR     30  16  55 E5        30.06F
WHEATON        CLEAR     30  27  86 CALM      30.05R
BRAINERD       CLEAR     30  20  66 NE3       30.06R
HIBBING        CLEAR     24  16  71 CALM      30.07F
ALEXANDRIA     CLEAR     36  17  46 E9        30.04S
SAINT CLOUD    CLEAR     32  22  66 CALM      30.05R
MINNEAPOLIS    CLEAR     39  21  48 N6        30.02R
$$

  *****  WEATHER ACROSS SOUTH DAKOTA  *****

CITY           SKY/WX    TMP DP  RH WIND       PRES   REMARKS
SIOUX FALLS    PTCLDY    36  34  92 NE5       29.97S
BROOKINGS      CLEAR     39  37  93 CALM      30.01R
WATERTOWN      CLEAR     39  35  86 CALM      29.99R
HURON          PTCLDY    41  38  89 SE6       29.97R
SISSETON         N/A     35  32  88 CALM      30.02R
ABERDEEN       CLOUDY    48  40  73 E6        29.99R
MITCHELL       PTCLDY    42  39  89 E7        29.98R
PIERRE         CLOUDY    50  43  77 SE12      29.93R
MOBRIDGE       CLOUDY    52  43  71 SE15      29.91S
RAPID CITY     CLOUDY    43  41  93 N17       29.87F
$$

  *****  SOME WEATHER IN NEARBY STATES *****

CITY           SKY/WX    TMP DP  RH WIND       PRES   REMARKS
GLASGOW MT     CLOUDY    38  34  85 NW14      29.96S
GREAT FALLS MT CLOUDY    33  28  81 N12       30.02R WCI  24
CHEYENNE WY    CLOUDY    42  40  92 E10       29.80F
SCOTTSBLUFF NE CLOUDY    49 N/A N/A S12       29.79R
OMAHA NE       CLEAR     44  41  89 NE7       29.94S
DES MOINES IA  CLOUDY    48  37  65 E7        29.95R
DAVENPORT IA   CLEAR     37  31  78 N5        29.93R
CHICAGO IL     CLEAR     36  29  75 N7        29.90R
EAU CLAIRE WI  CLEAR     32  24  72 NE6       30.02R
LA CROSSE WI   FAIR      35  23  61 CALM      30.01R
$$

  *****  SOME NATIONAL WEATHER *****

CITY           SKY/WX    TMP DP  RH WIND       PRES   REMARKS
LA GUARDIA NY  CLEAR     46  30  53 NE8       29.67S
RALEIGH NC     CLOUDY    46  44  93 NE7       29.59F FOG
ATLANTA GA     MOCLDY    65  61  87 W12       29.65R
NEW ORLEANS LA PTCLDY    67  64  90 CALM      29.74S
OKLAHOMA CITY  PTCLDY    62  53  72 E14G22    29.68R
ALBUQUERQUE NM CLOUDY    56  31  38 W8        29.77F
SALT LAKE CITY RAIN      42  39  89 NW10      29.76R
LOS ANGELES CA PTCLDY    57  51  80 CALM      29.93R
BOISE ID       CLEAR     39  30  70 NW10      29.94S
SEATTLE WA     CLEAR     42  36  79 S5        30.12R
$$

*** WEATHER ACROSS MANITOBA...SASKATCHEWAN AND ONTARIO ***
                ***ONTARIO***

CITY           SKY/WX    TMP DP  RH WIND       PRES   REMARKS
GERALDTON      CLOUDY    32  27  80 N5        30.11S
THUNDER BAY    CLEAR     25  21  86 SW5       30.12R WCI  19
SIOUX LOOKOUT  CLEAR     30  16  55 E5        30.14S
TORONTO        PTCLDY    36  28  75 N8        29.82R
BIG TROUT LK   CLEAR     23  23 100 NE3       30.24S
PICKLE LAKE    NOT AVBL
DRYDEN         CLEAR     30  25  80 NE6       30.12R WCI  24
KENORA         PTCLDY    37  21  52 E9        30.09S
$$
                *** MANITOBA***

CITY           SKY/WX    TMP DP  RH WIND       PRES   REMARKS
BRANDON        MOCLDY    48  39  71 E9        29.97S
DAUPHIN        CLOUDY    45  36  70 SE9       29.97R
ISLAND LAKE    PTCLDY    30  19  64 E5        30.18F
PILOT MOUND      N/A     36  34  93 SE9         N/A
THE PAS        LGT RAIN  34  30  86 NE8       30.08S
THOMPSON       CLOUDY    32  30  93 NE7       30.20R
WINNIPEG       CLEAR     41  28  60 SE9       30.06R
LYNN LAKE      PTCLDY    25  19  80 NE3       30.22S
CHURCHILL      CLEAR     16  14  93 SE8       30.33R WCI   5
GILLAM         CLOUDY    30  23  74 E5        30.25R
$$
                ***SASKATCHEWAN***

CITY           SKY/WX    TMP DP  RH WIND       PRES   REMARKS
ESTEVAN        CLOUDY    43  41  93 W12       29.90R
KINDERSLEY     LGT SNOW  30  28  93 NW10      30.00R WCI  21
LLOYDMINSTER   CLOUDY    32  18  55 N8        30.05R WCI  25
PRINCE ALBERT  LGT SNOW  32  32 100 NE13      29.96F VSB 3/4 WCI  22
REGINA         CLOUDY    36  36 100 SW20      29.86R
YORKTON        LGT RAIN  43  39  87 E10       29.87F
N. BATTLEFORD  NOT AVBL
LA RONGE       FLURRIES  34  25  69 E12       30.13S
SASKATOON      LGT SNOW  32  30  93 N17       29.90R VSB 3/4 WCI  21
SWIFT CURRENT  CLOUDY    30  28  93 NW17G28   29.92R WCI  18
$$
NOTE: THESE ARE AUTOMATED STATIONS WITH LIMITED QUALITY CONTROL
      "FAIR" INDICATES FEW OR NO CLOUDS BELOW 12,000 FEET WITH NO
      SIGNIFICANT WEATHER AND/OR OBSTRUCTIONS TO VISIBILITY.
      SKY/WX - SKY CONDITION AND SIGNIFICANT WEATHER.
      TMP - AIR TEMPERATURE.    DP   - DEWPOINT TEMPERATURE.
      RH  - RELATIVE HUMIDITY.  PRES - PRESSURE.
      HX  - HEAT INDEX.         WCI  - WIND CHILL INDEX.
$


USA.gov is the U.S. government's official web portal to all federal, state and local government web resources and services.